Wind_Speed
16 7 7 13 14 16 14 11 10 6 5 4 5 6 6 6 6 6 7 6 5 8 9 13 10 9 12 14 18 26 31 26 25 27 30 33 35 36 38 39 40 42 45 45 43 44 45 45 44 44 43 41 41 40 39 39 39 39 39 40 41 40 40 39 39 37 36 36 35 33 31 29 28 27 26 25 24 23 21 20 18 17 16 14 14 14
13 8 12 18 13 11 10 7 8 9 9 6 4 5 5 6 7 7 6 5 4 5 8 11 8 9 14 15 17 24 23 20 24 27 30 34 35 37 39 40 42 42 41 41 42 43 44 45 45 44 44 44 43 42 42 41 40 39 39 39 40 40 40 40 40 38 37 37 36 34 32 30 28 28 27 26 26 24 22 21 20 18 16 14 14 15
8 11 18 15 7 6 7 7 9 10 10 7 5 4 5 4 3 7 8 5 4 4 5 7 8 9 15 16 17 21 21 24 33 36 36 38 36 36 39 41 42 41 39 40 44 44 45 46 46 46 46 46 45 43 43 42 41 40 40 39 39 40 40 41 41 39 37 37 36 34 32 30 29 28 27 26 25 24 23 22 21 20 17 15 14 15
7 11 14 9 7 8 8 7 9 8 7 7 5 5 6 3 2 5 7 4 3 5 4 4 5 6 11 13 14 23 29 29 35 39 39 40 41 43 45 46 45 44 43 43 46 47 46 46 47 48 48 47 46 45 44 43 42 42 42 41 40 40 40 41 41 40 37 36 35 34 31 29 28 28 27 26 25 25 24 24 23 22 19 16 15 15
7 6 8 11 10 11 10 8 9 7 6 8 8 8 7 5 7 7 3 4 3 3 3 1 1 3 7 11 10 18 25 24 29 33 31 35 42 43 42 43 45 46 47 47 47 48 47 48 49 50 49 48 48 48 47 45 44 43 42 41 40 40 40 40 41 40 38 37 35 34 32 30 30 29 29 29 28 27 26 25 25 23 20 18 16 15
10 8 11 14 11 12 12 10 9 9 6 7 11 12 11 9 10 7 1 4 4 5 3 2 2 5 6 13 13 13 14 16 21 23 26 33 36 34 34 38 42 44 46 47 49 51 51 50 49 49 49 49 50 50 49 46 44 43 42 41 40 40 40 40 40 40 40 39 38 37 35 34 33 32 32 31 31 29 27 26 25 23 21 19 17 15
8 8 9 11 13 13 12 11 10 11 6 8 11 12 13 10 10 7 2 1 3 5 5 2 4 5 4 11 16 14 15 18 18 17 24 31 31 32 36 40 42 43 44 46 48 50 51 51 50 50 50 51 51 50 49 47 45 43 42 41 40 40 40 40 40 40 41 41 40 39 38 36 34 34 33 32 31 29 28 26 25 24 22 20 19 17
8 10 10 10 13 12 11 11 11 12 9 9 9 9 9 9 13 10 4 4 4 4 6 2 3 3 3 8 14 16 18 19 18 17 20 25 30 35 39 41 43 45 46 46 48 49 51 52 52 53 53 53 52 50 50 49 47 45 43 41 40 39 39 39 40 41 41 42 42 41 39 38 36 35 33 31 31 30 28 27 25 24 23 21 20 18
9 13 13 11 11 10 11 13 12 13 11 6 5 7 7 8 12 9 4 4 3 2 8 7 3 3 4 6 11 14 18 19 20 20 18 23 32 36 38 42 45 47 47 47 49 50 52 53 54 54 54 54 52 50 50 50 48 46 44 43 41 40 38 38 40 41 42 43 43 42 41 40 38 36 34 32 31 30 29 27 26 24 24 22 21 20
7 12 15 12 9 9 10 10 10 12 10 3 6 6 5 7 8 5 5 4 2 2 10 11 4 3 5 5 8 11 14 17 18 18 18 24 35 38 39 43 45 45 46 47 49 51 53 54 54 53 53 52 52 51 51 50 49 48 46 45 44 42 40 38 38 41 43 44 43 43 43 42 40 38 36 34 32 30 29 28 26 25 24 23 22 20
5 11 17 13 11 9 6 8 10 13 11 4 5 4 2 4 3 1 3 4 3 6 11 15 8 6 5 5 7 10 14 17 17 15 16 21 30 35 38 42 44 45 46 49 49 48 51 53 52 52 51 51 52 51 51 51 50 49 48 48 47 44 42 39 38 39 43 44 45 45 44 43 41 40 38 36 33 31 30 29 27 25 24 24 23 21
5 7 8 9 15 13 6 7 9 12 12 6 4 5 2 3 1 1 1 3 7 8 9 13 9 8 8 6 6 12 18 21 19 17 18 19 26 35 39 42 45 46 48 48 47 46 47 49 50 51 51 51 51 52 52 52 52 51 50 49 48 47 45 42 40 39 41 43 44 45 45 44 42 41 39 37 34 32 31 30 28 26 25 25 24 23
6 8 4 5 15 16 9 7 7 8 10 8 5 6 5 3 2 4 4 3 7 7 7 8 6 7 9 8 10 15 20 21 19 20 23 24 30 38 41 42 45 46 46 46 46 46 48 49 51 52 52 51 51 52 53 53 52 52 51 51 50 49 47 45 42 40 41 42 43 43 44 45 44 42 40 37 35 33 32 31 29 28 27 26 26 25
4 6 8 7 9 14 13 8 6 7 8 10 8 7 7 5 5 7 5 3 4 5 7 7 6 4 5 7 11 17 20 23 25 29 31 34 39 43 44 45 45 45 46 46 47 48 49 52 52 53 53 53 53 53 53 53 53 53 52 52 51 49 47 46 44 42 41 42 42 43 43 43 44 43 41 38 36 34 33 32 30 29 28 27 26 25
7 8 10 12 6 9 15 11 9 8 7 10 10 7 8 6 6 7 4 4 4 4 7 5 5 6 5 5 10 15 20 27 33 37 35 35 40 43 42 42 42 44 46 46 47 50 52 52 52 53 54 55 55 54 54 54 54 54 54 53 53 51 49 47 45 43 42 41 41 42 42 42 42 42 41 39 37 35 34 33 31 30 28 27 26 24
8 9 6 11 11 10 13 12 11 10 6 9 8 8 10 7 5 3 3 5 4 3 6 4 4 5 4 5 6 8 14 21 29 34 32 30 31 31 31 34 38 42 45 46 47 50 51 51 52 53 54 55 55 55 55 55 55 56 55 55 54 52 50 48 46 44 43 41 41 42 43 43 42 41 41 40 38 36 35 34 33 31 29 27 25 24
4 6 4 5 10 13 15 12 12 12 6 4 8 10 7 5 5 4 4 1 3 5 6 3 4 4 2 5 5 6 10 12 19 23 25 29 31 29 29 33 38 41 44 46 49 52 52 51 52 53 54 54 55 55 56 57 57 57 57 56 55 53 51 49 47 45 43 41 41 42 43 43 43 42 41 40 38 36 35 35 34 33 31 28 26 23
4 7 10 8 8 12 14 13 11 14 10 4 6 8 4 5 4 4 2 2 2 6 5 1 4 5 3 4 5 5 9 9 14 18 20 27 29 29 32 37 41 43 45 48 50 52 52 51 52 53 53 55 56 57 58 58 58 58 57 57 56 55 53 51 49 47 44 42 42 42 43 43 43 43 42 40 38 37 36 36 35 35 33 30 27 24
5 5 9 6 6 7 8 9 8 12 15 10 5 7 7 4 6 5 4 4 4 4 5 3 3 4 5 5 5 7 9 9 12 15 17 21 22 26 34 40 44 45 44 45 47 48 48 49 51 53 53 54 55 56 57 57 56 56 57 57 56 55 54 52 50 48 46 43 42 42 42 42 42 42 42 41 40 39 38 37 36 35 34 32 29 26
5 2 5 4 2 8 5 6 7 9 12 10 5 7 7 5 6 6 4 3 4 4 3 4 4 4 6 6 7 10 10 10 11 12 14 17 21 27 34 39 43 44 43 44 46 47 49 52 54 55 55 54 55 55 55 55 55 55 56 56 56 55 54 53 51 50 48 45 44 42 41 42 41 41 40 40 41 40 38 37 36 35 34 33 31 28
4 1 4 7 8 6 3 5 8 9 8 8 7 7 7 4 3 5 3 3 4 3 3 3 5 5 5 5 8 10 10 9 11 12 13 16 23 32 36 39 42 44 45 47 48 50 52 53 54 54 54 52 51 51 52 52 53 54 55 55 56 55 55 54 53 51 49 47 45 43 42 41 41 41 40 40 40 40 39 37 36 35 34 34 33 30
3 1 4 7 7 4 7 5 2 2 4 6 6 7 9 5 4 5 5 2 3 3 4 4 5 7 6 5 8 10 10 9 11 14 12 16 27 33 37 42 44 45 48 49 51 53 52 52 53 52 50 49 48 49 50 51 53 53 54 54 54 54 54 55 53 52 49 47 46 44 42 41 40 40 41 41 40 40 39 38 36 35 35 35 34 32
5 2 4 7 6 8 16 15 10 10 10 7 7 7 8 5 5 8 7 4 4 4 3 2 3 8 6 6 8 10 11 11 12 15 12 17 29 35 38 43 45 47 50 51 52 52 51 52 52 51 49 48 49 49 50 51 52 53 54 54 53 54 54 54 53 51 49 48 46 44 42 42 41 41 41 41 41 41 40 39 37 36 36 35 34 33
6 2 3 6 6 9 15 14 10 10 7 4 6 6 7 8 9 7 6 5 5 5 4 2 5 9 6 4 5 7 8 9 11 18 19 19 27 35 39 41 43 46 49 50 50 50 50 50 49 48 48 48 49 49 49 50 51 52 53 53 53 53 53 53 52 51 50 48 46 44 43 43 42 41 42 42 42 41 40 39 38 38 37 36 35 34
5 2 2 4 4 6 7 6 4 3 2 2 5 5 8 12 12 5 2 4 5 7 8 5 7 10 6 2 3 4 5 6 7 17 25 23 25 33 37 38 41 45 47 47 47 46 45 45 46 48 49 50 51 51 50 51 51 51 52 52 53 53 52 52 51 51 50 48 46 45 44 43 42 42 42 42 42 42 41 40 39 39 38 37 37 36
3 1 0 1 2 4 5 4 1 4 6 5 6 8 10 10 12 7 4 4 7 6 7 8 9 10 8 7 9 7 4 6 7 13 24 27 29 34 36 36 38 42 44 45 45 45 44 44 48 51 51 51 52 52 51 51 51 51 51 51 51 51 51 51 50 50 50 49 47 46 45 43 43 42 41 41 41 41 40 41 40 40 39 38 37 37
2 3 2 4 6 6 6 6 5 6 8 9 10 14 15 13 10 8 6 6 7 5 6 9 9 10 13 13 14 12 7 7 8 9 16 24 29 33 37 38 39 41 44 44 44 44 44 46 49 51 51 52 53 53 52 51 50 50 50 50 50 50 50 50 50 50 50 49 49 47 45 43 42 41 40 39 39 39 40 40 40 40 39 38 38 38
1 2 4 7 9 9 11 14 14 12 12 12 13 16 16 14 11 10 11 8 7 7 6 8 6 9 16 17 16 14 8 7 8 7 14 23 29 33 36 38 39 40 41 41 42 43 44 47 50 50 50 51 52 52 51 50 49 49 49 49 49 49 49 49 50 50 50 50 49 48 46 43 41 40 39 39 39 39 39 40 40 39 38 38 38 38
1 3 4 5 9 11 14 17 17 14 13 13 13 16 18 16 12 13 13 10 10 8 9 6 7 11 16 18 17 13 7 7 9 12 20 25 29 32 33 34 36 38 38 38 41 43 45 48 50 50 50 51 52 51 50 49 49 48 48 48 48 48 49 49 49 49 49 49 49 48 46 43 42 41 40 39 39 39 40 40 39 39 39 39 39 38
1 3 4 6 10 14 15 14 13 12 10 12 13 13 15 16 15 15 12 10 12 10 8 7 10 14 15 14 13 8 6 10 10 12 17 20 24 28 29 31 34 36 38 40 43 45 47 49 51 51 50 50 51 51 51 50 50 49 49 49 48 49 49 49 49 49 49 49 48 46 45 43 42 41 40 40 39 39 39 39 39 40 40 39 39 38
2 2 4 6 8 11 11 7 7 9 9 10 9 9 11 12 12 14 11 7 9 7 4 6 10 11 10 7 6 5 5 6 5 8 15 21 26 28 27 29 33 35 38 42 44 46 47 49 50 49 49 49 50 51 52 52 51 50 49 49 49 49 48 48 48 48 48 48 46 45 44 44 43 42 41 41 39 39 39 39 39 39 39 40 40 39
2 2 4 5 5 7 6 7 13 15 10 7 5 13 17 12 3 6 3 1 3 5 3 4 6 8 7 4 2 3 7 6 3 2 10 18 24 27 28 29 32 35 38 41 43 45 46 46 47 47 47 49 50 50 51 51 50 50 50 50 50 48 47 47 47 47 47 46 45 44 44 43 43 43 42 41 40 39 38 38 38 39 39 40 40 39
2 2 2 3 3 6 5 10 15 13 7 4 3 11 14 11 6 7 7 10 6 1 4 5 6 6 6 4 2 5 9 6 5 6 4 11 18 25 31 33 35 38 40 42 43 44 45 45 47 48 48 48 49 49 49 49 49 49 50 50 49 48 47 47 46 46 45 44 43 43 43 43 43 43 42 41 40 39 38 38 39 39 39 39 39 39
3 2 2 1 2 5 10 14 10 1 1 2 3 9 12 10 11 11 8 9 9 5 1 3 6 6 4 4 2 5 9 8 11 15 10 2 12 21 26 29 33 36 39 42 44 44 46 46 47 47 47 47 47 46 46 46 47 47 47 47 47 47 47 46 45 45 43 43 42 42 42 42 42 42 41 40 39 38 38 39 38 38 38 38 38 39
3 3 2 1 2 4 9 10 1 6 2 2 5 9 11 7 7 7 6 10 14 12 10 7 6 5 4 5 4 7 13 19 26 30 24 10 5 15 19 20 24 29 33 36 39 40 42 43 44 44 44 44 43 43 43 44 45 44 44 45 45 45 45 44 44 43 42 42 41 41 41 41 41 40 39 38 38 38 38 38 37 37 37 37 38 39
4 3 2 2 3 2 4 4 2 4 5 3 3 8 12 8 8 8 6 12 17 14 12 10 9 7 5 5 4 6 13 27 34 34 31 22 11 8 13 14 18 24 27 29 32 34 36 38 40 40 41 40 40 40 41 42 42 42 42 42 42 42 42 42 42 41 41 41 40 40 40 39 39 38 38 37 37 37 37 36 35 35 35 35 36 37
6 3 1 2 2 1 2 4 3 3 6 4 2 8 10 7 9 9 4 8 13 13 12 11 10 10 7 4 1 2 6 21 24 22 27 27 21 16 16 15 16 20 23 24 27 28 29 31 31 32 34 35 36 37 39 39 39 39 39 39 39 40 39 40 41 40 40 40 39 38 38 38 37 37 36 36 36 36 35 34 33 32 32 33 34 35
7 6 2 1 2 1 2 3 4 2 1 2 7 12 9 7 8 8 3 3 11 16 16 13 10 10 9 8 8 10 6 12 10 10 21 25 23 25 25 24 22 21 20 21 22 22 22 23 23 24 27 29 32 33 34 35 35 36 37 38 38 38 38 39 39 39 39 39 37 37 36 36 36 35 34 35 35 34 32 31 31 30 30 31 31 31
9 7 4 3 3 2 1 2 3 2 2 5 14 17 16 14 9 6 1 4 10 18 20 15 11 11 10 11 11 6 3 9 4 6 16 21 24 28 30 30 30 29 27 24 23 23 22 22 22 22 24 25 27 27 27 29 32 34 36 37 36 36 37 38 37 37 37 37 35 35 35 35 35 34 34 34 34 32 31 30 29 28 29 30 30 29
6 6 4 3 4 3 3 3 2 1 2 9 14 18 25 24 10 2 3 4 9 17 21 17 13 14 15 15 12 7 7 8 4 7 15 20 25 29 30 31 32 33 33 32 29 28 27 26 25 25 24 23 23 23 24 26 28 30 32 32 32 33 33 34 33 33 34 35 34 35 35 35 35 34 34 33 32 31 30 29 28 29 30 30 30 30
2 3 3 3 4 4 3 2 2 1 2 10 17 23 28 22 6 3 4 4 11 17 19 19 17 19 20 17 11 10 12 15 16 18 22 24 27 30 30 30 30 31 33 32 32 32 32 30 29 27 25 23 21 20 20 22 23 24 24 25 27 29 29 30 31 32 34 36 36 36 36 36 35 35 33 33 31 31 31 30 30 30 30 30 31 31
1 2 1 3 3 2 3 2 2 2 1 11 21 25 23 11 2 3 7 10 14 16 17 21 23 23 22 18 14 16 21 25 27 28 28 27 28 29 28 28 28 28 29 29 28 30 30 30 29 27 24 21 19 19 18 18 19 18 18 18 21 23 26 28 30 32 34 36 36 37 37 36 36 35 34 33 33 33 33 32 31 31 31 31 32 32
0 1 1 1 1 1 2 0 2 1 4 15 19 15 14 9 3 5 9 12 16 18 19 22 25 26 24 20 19 23 28 30 30 30 30 29 28 29 28 28 27 26 25 25 25 25 26 27 26 24 22 19 17 17 16 16 16 15 15 15 16 18 19 21 24 26 29 31 33 34 35 35 35 35 34 34 34 34 34 33 33 33 33 33 33 34
3 2 2 2 2 2 1 2 3 3 5 13 12 7 9 9 10 12 11 12 19 23 23 23 25 27 27 23 23 26 29 31 30 29 30 29 28 28 28 28 27 26 24 22 21 21 22 24 23 21 19 16 15 14 13 13 14 13 13 13 14 15 16 17 18 20 22 24 25 27 28 29 30 32 33 33 33 34 34 34 34 34 34 34 35 35
4 5 4 3 3 3 2 2 4 4 5 12 14 13 14 15 18 20 19 17 20 24 25 25 26 28 29 27 27 28 28 29 29 29 29 28 26 26 26 26 26 26 24 21 19 18 18 20 19 18 16 14 12 11 10 10 11 11 11 11 12 13 14 15 16 18 19 21 22 22 23 24 24 25 27 28 30 32 32 33 34 35 35 35 36 36
5 8 6 4 5 6 3 4 8 8 7 12 16 17 16 16 18 21 21 21 22 24 25 25 25 27 29 28 28 29 28 27 27 27 27 26 25 24 23 23 24 24 23 22 19 16 15 15 15 14 13 11 9 7 6 6 7 8 8 9 9 10 11 12 12 14 16 18 19 20 21 23 23 23 22 23 25 26 27 28 30 33 34 35 35 35
6 9 6 5 6 6 2 3 7 9 5 9 15 16 14 14 18 20 20 20 20 21 22 22 23 25 26 26 26 27 26 26 26 25 25 25 24 22 21 21 21 21 21 21 19 16 14 13 13 13 11 10 8 6 4 4 5 6 7 7 8 8 8 8 8 9 10 13 15 17 19 21 22 22 21 20 20 21 22 24 26 29 31 33 34 34
8 10 6 5 6 4 5 4 9 11 3 9 13 14 14 15 18 21 20 19 19 18 18 19 21 23 24 24 23 23 23 25 25 24 24 23 23 21 20 19 18 18 18 18 18 17 16 15 15 14 12 10 8 5 3 2 3 5 7 7 7 8 8 7 7 6 6 9 12 15 16 17 18 18 18 18 19 20 22 24 26 28 30 31 31 31
9 8 6 6 7 6 6 4 10 13 4 10 12 12 14 15 18 20 19 20 18 15 15 15 18 20 22 22 21 20 20 22 23 22 21 21 21 20 19 17 15 14 14 15 15 15 15 15 15 14 13 13 11 8 4 1 2 5 7 8 9 9 8 8 7 7 6 7 10 13 14 15 15 16 17 18 20 21 23 25 26 27 28 28 28 28
7 6 6 7 6 4 2 5 10 10 7 8 7 9 11 15 18 18 19 21 18 13 13 14 15 17 20 21 20 18 17 18 20 20 19 19 19 19 18 16 14 12 11 12 12 12 13 14 14 13 13 14 14 12 9 6 4 4 6 8 10 10 10 9 8 8 8 8 9 12 14 15 16 17 18 19 20 20 21 23 23 24 25 25 25 24
9 8 7 7 7 9 12 16 18 14 15 22 24 17 11 16 19 17 18 19 16 13 13 13 13 14 17 19 19 17 15 15 16 18 18 17 17 17 16 16 14 11 9 9 9 10 11 11 11 9 10 11 13 13 12 11 9 7 5 5 8 10 9 9 9 9 9 9 10 11 14 16 17 18 18 19 20 19 19 20 21 21 21 21 21 20
Wind_Direction
182 181 195 207 212 209 210 207 204 227 243 210 172 199 218 226 248 239 243 262 198 181 209 211 196 183 185 184 182 181 182 186 183 181 185 188 189 190 193 196 198 199 201 199 198 201 202 204 205 206 207 209 210 211 212 211 212 212 213 213 213 214 215 214 212 211 208 207 207 207 207 207 207 207 206 206 209 209 207 206 209 212 214 218 222 228
181 196 217 213 207 203 207 196 184 208 237 243 209 210 231 228 245 253 248 265 220 197 225 214 188 184 191 190 185 180 182 190 187 185 190 190 189 192 195 197 200 202 201 198 197 199 201 203 205 205 206 207 209 211 212 213 213 212 212 213 213 212 213 212 210 209 207 206 205 206 207 207 206 208 208 208 210 211 210 209 212 215 217 221 226 230
189 220 223 209 178 178 197 182 180 201 219 235 231 215 242 233 256 277 263 260 224 216 236 201 181 196 198 193 185 181 187 195 192 190 191 189 188 193 196 198 200 202 201 199 199 199 201 203 204 205 206 208 210 211 212 214 214 213 213 213 212 212 211 211 210 210 208 206 205 207 209 208 208 210 211 211 213 215 214 212 214 217 218 222 230 233
194 227 219 184 155 179 200 190 184 200 214 222 220 213 238 231 173 250 260 261 221 217 237 191 183 208 203 194 188 191 194 195 196 197 195 191 190 194 197 197 198 199 200 199 200 199 200 202 203 205 206 207 209 211 212 212 213 214 214 214 213 212 211 211 210 211 211 208 207 208 211 211 212 213 212 213 216 218 217 217 217 218 217 221 231 234
223 238 167 155 180 189 201 207 190 199 221 224 220 219 230 227 216 229 289 330 309 280 260 190 266 269 202 193 198 201 199 197 198 198 199 199 197 197 197 198 199 200 200 199 199 199 199 201 203 205 206 207 208 210 211 212 213 214 214 215 214 213 212 211 211 211 211 211 210 209 211 213 215 215 213 213 215 217 218 218 219 219 216 217 225 231
236 235 161 166 193 190 201 213 202 201 216 233 225 220 221 227 236 236 353 348 320 305 276 160 248 291 209 193 201 202 200 203 200 196 201 205 203 199 197 199 202 204 203 201 200 199 199 201 202 204 205 207 208 210 212 213 214 214 214 214 214 214 214 212 212 211 210 211 210 209 209 211 214 215 214 214 216 216 216 217 218 219 217 216 220 225
227 219 174 182 192 190 207 214 209 198 201 237 223 216 218 224 247 241 141 184 245 262 267 160 185 266 243 203 205 196 195 205 201 198 205 204 202 199 200 201 201 204 205 204 203 201 200 200 201 203 205 207 210 211 212 214 215 215 214 213 213 215 215 214 213 211 211 211 211 210 210 211 213 215 215 216 218 219 218 219 219 219 219 218 219 220
201 197 183 194 193 192 207 211 206 189 197 235 212 203 212 214 243 240 166 206 244 276 282 262 171 242 258 218 212 195 195 206 202 202 206 203 203 203 202 202 202 204 204 204 204 203 201 201 201 203 206 208 210 211 211 213 214 215 214 213 213 215 216 215 214 212 212 211 212 212 212 213 215 216 217 217 219 221 222 222 221 221 222 222 222 221
191 199 191 193 198 201 209 209 196 186 208 233 167 187 206 206 239 238 166 212 251 324 281 268 180 224 265 233 218 199 197 207 207 205 204 201 205 205 204 204 204 205 205 204 204 203 202 202 203 204 206 209 210 210 211 213 214 215 214 214 214 215 216 216 215 214 213 213 214 214 214 215 216 218 219 219 219 220 222 223 223 224 224 224 225 225
191 200 190 192 209 209 212 211 189 192 218 196 141 178 207 216 239 225 171 197 213 222 255 256 200 195 273 245 207 203 204 209 209 207 204 203 206 205 204 205 206 206 206 207 207 205 204 203 204 205 207 208 209 210 212 214 214 214 214 214 214 215 215 217 216 215 214 215 216 217 217 217 217 218 220 221 221 220 221 223 224 225 226 226 226 225
218 197 188 197 216 202 194 207 196 201 210 159 144 185 235 246 248 209 164 168 215 233 245 251 221 179 256 258 197 201 209 209 209 207 205 206 207 207 206 205 205 205 206 208 208 207 206 205 205 205 207 208 209 210 211 212 214 214 214 214 214 215 215 217 217 216 216 216 218 219 219 219 219 219 220 221 221 220 220 223 224 225 227 227 227 226
238 215 191 199 210 194 168 202 208 207 206 186 171 187 255 294 324 321 136 156 221 235 242 247 225 190 230 256 210 204 210 209 207 204 200 203 207 207 207 206 205 205 206 207 207 206 206 205 204 205 206 208 208 208 209 210 212 213 214 214 214 215 216 217 217 216 216 216 219 221 220 221 221 221 222 221 221 220 220 222 223 224 226 228 229 228
228 231 235 216 207 195 178 197 206 203 204 201 184 173 200 233 214 215 198 187 222 236 244 230 199 201 227 238 215 204 210 213 211 209 201 199 204 206 206 205 204 205 205 206 205 205 205 204 204 204 205 207 207 208 208 209 210 212 213 214 214 215 216 217 218 217 217 217 219 221 221 222 222 223 224 224 223 222 222 224 225 225 226 227 228 229
215 232 230 226 214 197 191 191 193 199 196 196 194 180 190 198 204 213 213 226 223 234 247 210 175 214 231 234 214 196 204 212 213 217 209 203 204 205 204 203 202 204 204 205 205 204 205 205 203 204 205 206 207 208 208 208 209 210 212 213 214 215 216 217 218 218 218 218 219 221 222 222 223 224 225 226 226 225 225 226 227 229 229 229 230 229
210 227 214 211 206 180 195 201 185 181 187 199 195 181 198 201 194 203 198 204 204 231 246 198 173 204 186 218 216 190 199 207 210 217 215 210 210 208 205 201 199 201 203 204 204 205 206 205 204 204 205 206 207 208 208 208 209 210 211 212 214 215 216 217 219 220 220 221 221 222 223 224 224 225 226 227 227 228 227 228 229 231 233 233 233 231
231 229 198 206 206 177 197 207 178 169 192 206 187 186 212 198 162 194 199 181 160 202 240 204 197 219 200 247 245 175 188 202 207 213 212 213 215 209 205 201 199 201 202 202 204 206 207 205 205 205 205 206 207 207 208 209 209 209 211 213 215 216 217 218 219 220 222 223 223 223 224 225 225 226 227 228 228 229 229 229 230 232 234 235 235 234
279 252 331 285 230 204 202 196 179 184 188 177 188 203 205 147 148 214 240 207 122 185 233 211 215 261 281 265 261 146 160 192 205 208 208 210 207 198 200 202 202 202 202 202 204 206 206 205 205 206 205 206 206 207 209 209 210 210 211 213 214 216 217 218 220 221 222 223 224 224 225 226 227 227 227 227 228 228 229 230 231 234 236 236 236 235
340 284 302 296 248 236 217 197 194 195 178 148 197 197 131 100 164 199 221 268 191 210 255 248 202 224 198 239 257 168 158 183 201 204 207 210 202 192 195 201 203 204 204 204 205 206 206 205 205 206 206 207 207 208 210 210 211 211 212 214 214 215 217 218 219 220 222 223 224 225 226 227 227 228 228 228 228 230 231 231 231 234 236 236 236 234
334 300 286 247 222 279 249 202 209 206 198 203 189 157 141 164 198 184 192 223 207 220 271 285 235 213 196 220 233 203 186 180 194 201 205 210 204 194 196 200 202 204 204 204 205 206 206 206 206 207 207 207 208 209 210 211 211 211 212 214 215 216 218 219 220 220 221 223 225 226 227 228 228 228 229 229 231 231 232 232 232 233 234 235 236 234
323 305 291 286 315 326 302 200 208 214 211 208 174 154 171 190 193 185 183 188 193 214 242 275 277 235 225 216 191 201 206 183 179 193 201 207 207 200 198 200 200 201 202 202 204 205 206 207 208 208 208 208 208 209 210 210 210 211 212 213 215 217 218 218 219 220 221 223 225 227 228 229 230 230 230 230 231 232 232 232 232 233 234 235 236 234
328 310 286 314 339 326 258 200 203 207 209 203 194 188 189 186 164 187 202 151 159 195 194 229 264 252 247 222 187 199 215 193 173 182 196 204 206 202 199 200 200 199 201 202 203 205 207 208 208 209 209 208 208 208 208 209 210 211 212 213 215 216 216 217 219 220 222 223 225 227 228 230 231 231 231 231 231 231 231 231 231 232 233 235 236 235
315 342 292 296 330 306 245 256 295 283 264 227 215 206 198 189 141 176 228 213 150 182 177 182 247 260 247 206 191 195 208 209 183 180 193 202 203 204 201 201 200 200 201 203 204 205 206 206 207 208 207 206 207 208 208 209 210 211 212 213 214 215 215 217 218 220 223 224 225 227 229 231 232 233 233 232 232 231 230 231 230 231 232 234 235 235
294 299 295 277 278 263 259 271 295 295 281 261 243 219 197 189 165 184 218 213 185 204 176 143 257 269 250 206 201 203 208 215 194 181 194 204 202 202 203 202 202 201 202 204 204 205 205 205 205 206 206 205 207 208 208 209 210 211 212 213 213 214 216 218 219 221 223 224 226 228 229 231 232 233 234 233 233 232 231 231 231 231 232 233 234 235
318 313 309 300 289 275 268 265 268 265 253 260 269 234 198 201 200 201 201 177 186 209 194 212 264 267 267 223 215 232 233 226 193 183 197 206 202 202 203 202 201 201 203 204 203 204 204 203 202 203 204 205 206 208 209 209 210 211 212 213 213 215 216 218 219 221 222 224 226 228 229 231 232 233 233 234 234 234 233 233 232 232 232 232 233 235
329 337 359 340 322 291 269 244 256 306 3 332 292 272 239 217 200 186 120 151 202 211 184 192 246 254 272 300 290 297 276 258 215 194 202 206 201 202 204 201 199 200 201 202 201 202 202 200 200 202 204 204 206 208 208 209 210 211 212 212 213 215 216 217 218 220 222 224 226 228 229 230 232 233 234 235 235 235 235 234 234 234 233 233 234 235
305 264 19 2 261 247 239 215 231 346 342 312 291 302 293 247 208 182 126 168 217 211 175 192 234 256 279 294 288 286 264 263 254 207 208 210 202 200 201 199 197 198 199 200 198 198 199 198 200 204 204 204 206 207 208 209 210 211 212 213 214 215 215 216 217 219 221 224 225 227 229 231 232 234 235 236 237 236 236 236 235 235 235 235 235 235
294 246 230 207 229 249 266 278 287 304 301 288 290 298 299 285 248 198 159 185 199 173 187 215 226 254 271 271 267 266 266 273 264 212 205 209 202 198 197 196 196 197 199 198 196 196 196 197 201 204 204 204 206 207 208 209 209 210 211 213 214 215 215 216 218 219 221 223 225 227 229 231 233 234 236 237 237 237 237 236 236 236 236 236 236 236
269 274 264 227 239 256 267 277 283 286 276 266 276 283 282 287 275 224 202 191 155 150 221 233 202 229 254 257 255 259 270 281 267 219 202 202 196 194 194 193 194 196 197 196 194 194 195 196 201 204 204 205 206 207 208 208 209 210 211 213 213 214 215 217 218 219 221 223 225 227 229 231 233 234 236 237 238 238 238 237 237 237 237 237 238 237
213 259 274 258 273 276 271 272 273 269 261 253 258 267 268 275 271 243 222 185 153 180 225 218 183 214 243 251 253 256 252 250 242 220 210 201 192 190 189 188 191 192 192 192 192 194 196 198 201 203 204 205 205 206 207 208 209 210 211 213 214 214 216 217 218 220 221 223 225 228 230 232 233 235 236 237 238 238 238 238 238 238 238 238 239 239
277 260 283 299 300 290 277 267 258 256 265 268 265 265 266 265 256 248 233 182 170 201 217 188 190 219 239 248 255 266 258 247 238 223 217 202 188 188 186 186 190 190 189 190 193 196 198 199 202 204 204 204 204 206 207 207 209 210 211 212 214 215 216 217 219 220 222 224 227 230 231 232 233 235 236 237 238 239 239 239 239 239 239 239 240 240
319 285 310 326 317 297 285 281 284 290 285 270 278 314 316 291 251 233 229 195 180 203 221 192 204 233 253 257 266 308 319 282 237 209 213 200 189 188 185 185 189 189 189 191 193 196 199 200 202 204 204 204 205 207 208 209 210 211 212 213 214 215 216 217 219 221 223 226 228 231 232 233 234 235 236 237 238 239 240 240 240 240 240 241 241 241
293 281 322 355 332 291 297 328 323 318 304 268 313 355 342 325 276 188 184 72 173 187 173 168 202 245 270 281 281 19 24 9 358 262 225 207 193 188 185 185 188 189 190 192 194 196 198 200 202 203 204 205 206 208 210 211 211 212 214 214 214 215 216 217 219 222 224 228 230 232 233 233 235 235 236 237 238 239 241 241 241 241 241 242 242 242
262 279 332 7 316 281 305 324 315 317 320 279 354 7 343 337 34 79 57 20 359 200 166 181 216 253 279 294 307 56 46 24 9 6 285 221 202 192 189 187 188 190 192 193 194 196 198 200 202 205 206 207 208 211 212 213 215 216 217 217 216 215 215 217 220 222 226 230 231 233 234 234 236 236 237 238 239 240 241 241 242 243 243 244 244 244
248 280 312 12 294 287 304 312 307 306 337 236 108 29 352 352 35 59 56 17 1 356 331 241 256 281 309 323 345 90 82 65 47 40 35 227 211 201 195 192 190 191 192 193 195 197 198 201 203 206 208 209 211 213 214 215 218 219 219 217 216 216 216 218 221 224 228 231 232 233 235 235 236 237 238 240 240 241 242 242 243 244 245 246 246 246
248 271 274 208 233 280 305 320 332 154 210 211 104 36 358 351 24 43 60 31 16 8 2 348 320 332 38 43 44 99 102 82 60 46 41 48 188 201 197 192 190 190 192 193 195 197 199 201 203 205 208 210 212 213 213 215 216 216 216 216 216 217 218 219 222 225 228 230 231 233 234 235 236 237 239 240 241 241 242 243 245 245 246 247 247 247
235 252 263 246 248 273 318 329 173 190 308 340 91 13 359 0 357 359 24 24 15 7 3 353 335 346 42 69 73 98 87 73 62 45 38 48 73 149 172 175 181 186 189 191 194 197 199 202 204 206 208 210 211 213 213 214 213 213 215 216 217 218 219 221 223 225 228 230 231 233 234 235 236 237 239 240 241 241 242 243 245 246 246 247 248 249
214 231 257 253 237 241 320 307 269 276 327 355 12 344 345 337 332 335 352 11 6 3 1 352 340 341 344 349 323 274 39 59 60 38 32 46 64 89 116 134 154 172 181 187 192 196 198 202 204 206 208 209 211 213 214 212 212 213 215 217 218 220 221 222 223 226 229 231 232 234 235 236 237 238 240 240 240 241 242 243 245 245 246 246 247 248
203 215 226 245 250 323 334 313 311 289 240 344 327 318 302 278 290 291 270 6 3 359 359 355 350 348 341 340 322 290 328 50 58 21 27 44 61 78 92 105 118 138 156 170 181 187 189 194 197 198 204 208 210 212 214 214 214 216 218 219 220 221 222 224 226 229 231 232 235 237 237 238 239 240 240 240 241 242 243 244 245 245 246 246 247 249
203 215 235 254 259 306 314 281 307 265 193 332 326 316 311 310 298 265 239 33 0 350 353 355 354 356 354 357 352 328 65 80 73 12 34 49 62 73 84 92 101 114 126 139 156 165 169 175 180 182 190 198 203 207 212 214 217 219 219 221 222 223 225 228 230 232 234 236 238 240 240 241 241 241 242 242 242 244 244 245 246 247 247 248 249 250
201 211 225 235 236 253 249 251 286 236 260 321 321 313 312 314 308 214 114 41 343 340 351 356 358 7 8 9 15 36 78 88 88 53 54 61 68 72 79 85 92 103 112 118 129 137 144 154 159 162 167 175 185 194 201 206 211 215 218 221 224 227 230 234 236 238 240 241 242 242 242 242 242 243 243 244 245 247 247 247 248 247 248 249 250 251
199 215 210 214 234 255 242 246 301 236 268 318 317 316 317 316 319 92 71 2 325 332 353 5 7 12 16 19 33 55 67 74 77 73 68 68 70 71 77 83 88 97 105 111 119 127 133 138 141 143 146 151 161 172 181 190 197 205 213 219 224 229 233 236 238 239 240 240 241 241 242 243 244 245 246 247 248 249 249 249 249 249 249 251 251 252
188 212 201 202 223 249 215 214 287 238 347 336 324 328 340 349 77 63 16 356 339 337 357 14 16 16 18 25 43 60 69 71 70 69 66 65 67 69 73 79 84 89 97 105 114 123 128 129 130 132 133 136 146 153 159 169 177 184 195 206 217 226 230 234 236 238 239 239 240 241 242 244 245 247 248 249 249 249 249 250 250 250 251 251 252 252
219 242 313 244 257 297 227 119 15 259 4 352 335 340 14 33 34 0 353 353 358 2 10 17 20 21 21 26 38 53 64 65 64 65 65 64 66 68 69 73 76 79 86 93 100 111 120 123 124 125 126 130 139 146 152 163 168 172 182 193 204 215 222 228 233 236 238 240 241 243 244 245 247 248 249 250 250 250 251 252 251 251 251 251 251 251
28 9 1 318 335 357 359 37 13 291 341 4 0 19 43 30 21 22 11 355 0 10 17 20 21 24 27 29 35 46 56 58 58 60 63 63 63 64 65 68 70 71 75 80 84 95 109 115 117 119 122 126 132 139 149 162 172 180 190 198 207 217 222 228 232 235 238 240 242 244 245 246 247 248 248 249 250 250 251 252 251 251 250 250 250 250
21 8 357 304 297 327 338 39 20 358 34 44 44 45 40 32 32 32 25 12 4 7 14 18 18 25 32 34 35 40 46 51 54 56 59 61 62 62 63 65 66 67 70 72 74 80 93 104 110 115 118 120 124 133 143 157 173 186 197 208 218 227 232 235 237 239 241 243 244 246 247 248 248 247 247 248 248 248 249 249 250 250 249 248 248 248
353 3 6 337 311 319 341 36 21 5 29 58 59 56 46 31 27 26 21 14 8 6 12 16 20 27 34 36 36 35 36 42 48 51 54 58 61 62 62 63 64 64 66 66 66 67 77 91 101 108 113 115 120 130 141 155 174 186 198 212 225 235 242 245 243 242 243 243 243 244 245 247 247 246 246 245 245 246 247 247 248 249 249 249 248 248
345 358 9 354 331 326 340 33 9 350 14 71 65 57 50 30 17 16 12 5 4 8 14 20 25 31 36 38 36 33 34 37 40 42 45 48 52 56 58 60 61 62 63 63 62 61 67 77 86 92 100 107 113 125 144 167 191 202 208 219 229 240 250 257 254 247 243 241 239 237 236 239 241 242 241 240 240 242 244 245 245 246 247 248 248 247
339 348 0 352 336 309 268 292 339 335 334 114 84 50 39 25 9 6 5 358 356 3 12 22 29 31 33 36 34 32 35 36 35 36 38 39 41 44 49 53 55 57 60 63 63 62 62 65 70 76 83 89 93 101 124 169 213 227 229 231 233 236 244 256 261 259 252 243 239 235 233 233 235 235 234 234 234 234 235 238 240 241 243 246 248 249
341 347 352 336 317 285 266 313 356 345 314 138 101 44 21 6 355 356 356 350 349 355 2 15 26 27 28 31 31 30 32 33 33 34 37 38 37 36 38 43 48 52 56 59 60 61 60 59 61 64 68 71 72 70 65 48 275 258 250 246 245 241 242 250 262 270 269 256 244 237 232 231 231 230 229 231 233 233 232 234 235 237 240 244 247 251
358 352 351 336 311 269 271 355 1 344 288 253 288 339 358 351 343 341 338 337 342 346 346 357 13 22 27 29 29 27 28 30 30 31 33 37 36 32 30 30 33 43 51 52 56 60 59 56 56 58 62 64 62 59 53 43 17 317 275 260 255 253 248 247 255 265 271 271 259 243 233 229 229 229 229 232 236 238 236 235 236 237 239 241 244 248
359 340 330 317 291 280 294 306 310 299 277 277 284 290 309 326 328 324 319 324 333 333 332 340 349 359 11 18 21 21 19 20 25 27 28 34 35 33 31 26 21 25 33 38 47 58 62 61 58 59 64 62 57 52 46 39 29 10 334 286 265 261 257 252 253 257 262 268 264 252 240 233 229 229 229 232 236 240 240 238 236 235 236 238 241 242
Height
1465 1470 1470 1466 1461 1461 1463 1467 1471 1472 1472 1473 1476 1478 1478 1479 1477 1471 1467 1460 1457 1467 1470 1467 1471 1473 1472 1470 1467 1470 1473 1475 1477 1479 1480 1482 1484 1486 1488 1490 1492 1493 1494 1497 1500 1502 1505 1508 1511 1514 1516 1519 1521 1524 1526 1528 1530 1532 1535 1538 1540 1543 1545 1548 1550 1552 1555 1556 1558 1560 1562 1563 1565 1568 1569 1570 1572 1574 1575 1577 1578 1579 1581 1582 1583 1583
1464 1469 1462 1453 1454 1459 1463 1465 1468 1471 1471 1472 1475 1477 1477 1477 1474 1467 1465 1461 1457 1465 1468 1464 1470 1472 1468 1467 1465 1467 1472 1473 1473 1475 1476 1477 1480 1482 1484 1486 1489 1491 1494 1498 1500 1501 1503 1506 1508 1511 1513 1516 1518 1520 1523 1525 1527 1530 1533 1535 1538 1540 1543 1545 1547 1549 1551 1553 1555 1557 1559 1561 1563 1565 1567 1568 1570 1572 1573 1575 1577 1578 1579 1580 1581 1582
1466 1462 1451 1449 1456 1460 1462 1464 1467 1469 1470 1472 1473 1476 1477 1474 1472 1467 1462 1460 1459 1464 1467 1464 1471 1472 1464 1462 1463 1464 1465 1466 1466 1467 1468 1471 1476 1478 1480 1483 1485 1489 1493 1495 1496 1498 1499 1502 1505 1508 1510 1512 1515 1517 1520 1522 1525 1528 1530 1533 1536 1538 1540 1542 1544 1547 1549 1551 1553 1555 1557 1560 1562 1564 1565 1567 1569 1571 1572 1574 1575 1577 1578 1579 1580 1581
1464 1453 1445 1451 1456 1458 1462 1463 1465 1468 1469 1471 1472 1476 1476 1471 1473 1472 1464 1460 1459 1460 1463 1464 1468 1470 1464 1462 1462 1460 1458 1460 1463 1465 1466 1468 1469 1469 1472 1475 1479 1483 1487 1489 1491 1494 1496 1499 1502 1504 1506 1509 1512 1515 1517 1519 1522 1524 1527 1530 1532 1535 1537 1540 1542 1544 1547 1551 1553 1555 1557 1559 1561 1563 1565 1566 1568 1569 1571 1572 1574 1575 1577 1578 1579 1580
1454 1445 1444 1452 1454 1456 1462 1462 1464 1468 1469 1468 1468 1471 1471 1468 1470 1470 1465 1463 1460 1458 1458 1463 1472 1472 1467 1468 1466 1459 1458 1460 1462 1465 1469 1469 1467 1467 1471 1474 1477 1479 1481 1484 1487 1490 1493 1495 1496 1499 1503 1506 1509 1511 1513 1516 1519 1521 1524 1527 1529 1532 1535 1538 1540 1543 1546 1549 1552 1554 1556 1558 1560 1562 1563 1565 1566 1567 1568 1570 1571 1573 1575 1577 1578 1580
1449 1443 1444 1449 1453 1455 1459 1461 1461 1464 1469 1469 1464 1462 1464 1466 1466 1467 1468 1468 1471 1472 1460 1462 1481 1480 1468 1468 1465 1459 1461 1462 1461 1464 1466 1466 1468 1471 1473 1474 1476 1478 1480 1482 1483 1485 1487 1490 1493 1497 1500 1503 1505 1507 1510 1513 1516 1519 1522 1524 1527 1530 1533 1536 1538 1541 1544 1547 1549 1551 1553 1555 1557 1559 1560 1561 1563 1564 1566 1567 1569 1572 1574 1575 1577 1579
1444 1443 1444 1447 1451 1454 1457 1459 1457 1459 1469 1469 1457 1454 1460 1463 1466 1468 1470 1472 1478 1478 1462 1460 1480 1483 1473 1467 1460 1457 1461 1460 1460 1461 1461 1463 1467 1468 1468 1469 1472 1475 1479 1481 1482 1483 1484 1487 1491 1494 1496 1498 1500 1503 1507 1511 1514 1517 1520 1523 1525 1528 1530 1533 1536 1539 1542 1544 1546 1548 1550 1552 1553 1555 1557 1559 1561 1562 1564 1566 1568 1570 1572 1574 1576 1577
1437 1442 1445 1446 1449 1453 1456 1456 1452 1454 1465 1462 1450 1452 1459 1462 1465 1467 1471 1475 1474 1471 1464 1460 1469 1479 1479 1469 1456 1454 1459 1458 1458 1458 1457 1460 1463 1463 1463 1465 1467 1470 1473 1476 1479 1480 1482 1484 1486 1488 1491 1494 1497 1502 1505 1508 1511 1514 1517 1520 1523 1525 1528 1531 1534 1537 1539 1541 1543 1545 1548 1549 1551 1552 1555 1557 1559 1561 1564 1566 1567 1569 1571 1573 1575 1576
1433 1439 1442 1444 1449 1451 1448 1446 1446 1451 1457 1453 1447 1452 1456 1460 1463 1463 1470 1474 1470 1474 1475 1465 1465 1479 1479 1463 1453 1454 1458 1459 1456 1454 1454 1455 1457 1458 1460 1462 1463 1466 1469 1472 1474 1476 1478 1480 1482 1485 1488 1492 1496 1500 1503 1505 1509 1512 1515 1518 1521 1523 1526 1529 1532 1535 1537 1539 1541 1543 1545 1547 1549 1551 1554 1557 1559 1561 1562 1564 1566 1568 1570 1571 1573 1575
1431 1433 1436 1441 1445 1445 1442 1442 1444 1449 1452 1448 1447 1451 1454 1457 1460 1462 1469 1471 1472 1481 1480 1465 1464 1479 1477 1460 1456 1460 1459 1456 1451 1447 1447 1447 1449 1453 1455 1457 1459 1463 1468 1470 1471 1473 1475 1477 1480 1484 1487 1491 1495 1497 1500 1504 1507 1510 1513 1516 1518 1521 1524 1526 1529 1532 1534 1537 1539 1541 1543 1545 1547 1550 1553 1555 1558 1560 1561 1563 1565 1566 1568 1570 1571 1573
1429 1428 1432 1434 1436 1438 1440 1441 1442 1444 1446 1446 1449 1454 1457 1458 1459 1463 1466 1467 1478 1484 1474 1459 1458 1472 1477 1462 1454 1455 1450 1445 1443 1444 1444 1444 1446 1450 1452 1454 1456 1460 1463 1465 1468 1471 1474 1476 1479 1483 1486 1489 1493 1495 1498 1501 1504 1507 1510 1513 1515 1518 1521 1524 1527 1529 1532 1534 1537 1539 1541 1543 1545 1548 1550 1553 1555 1558 1559 1561 1563 1564 1566 1568 1570 1571
1430 1431 1430 1428 1429 1432 1437 1441 1440 1440 1442 1447 1451 1456 1464 1466 1464 1469 1470 1472 1485 1483 1465 1455 1455 1466 1474 1460 1446 1443 1436 1433 1435 1437 1439 1440 1441 1444 1446 1450 1453 1455 1458 1461 1466 1470 1473 1476 1478 1480 1483 1486 1489 1492 1495 1498 1500 1504 1507 1510 1513 1516 1519 1521 1524 1527 1529 1532 1534 1536 1539 1541 1544 1546 1548 1550 1553 1555 1557 1559 1561 1563 1564 1566 1568 1570
1432 1431 1428 1427 1426 1427 1435 1442 1442 1442 1442 1448 1453 1458 1471 1479 1477 1481 1482 1479 1482 1474 1456 1451 1455 1461 1460 1446 1436 1436 1430 1427 1427 1426 1428 1430 1432 1435 1439 1444 1448 1451 1455 1459 1463 1466 1469 1471 1473 1475 1479 1482 1486 1488 1491 1495 1498 1501 1503 1506 1510 1512 1516 1519 1522 1525 1527 1529 1532 1534 1537 1539 1542 1544 1546 1549 1551 1553 1555 1557 1559 1561 1562 1564 1566 1567
1437 1431 1426 1427 1426 1422 1428 1438 1444 1445 1443 1447 1451 1457 1471 1482 1487 1490 1485 1479 1477 1467 1451 1448 1455 1458 1449 1432 1424 1426 1424 1421 1421 1420 1421 1423 1424 1427 1431 1437 1443 1447 1451 1455 1459 1462 1463 1465 1467 1471 1475 1478 1481 1485 1488 1492 1495 1498 1501 1503 1506 1510 1513 1516 1519 1522 1525 1527 1529 1532 1534 1537 1540 1542 1544 1547 1549 1552 1554 1556 1558 1559 1561 1562 1564 1565
1441 1437 1425 1422 1422 1420 1421 1427 1432 1436 1440 1441 1440 1448 1458 1463 1471 1479 1477 1475 1473 1462 1450 1450 1455 1450 1439 1424 1413 1413 1414 1413 1415 1417 1419 1422 1422 1424 1429 1434 1440 1444 1447 1451 1454 1457 1458 1460 1464 1467 1470 1473 1477 1481 1485 1488 1492 1495 1497 1500 1503 1506 1510 1513 1516 1519 1521 1524 1527 1530 1532 1535 1538 1540 1542 1545 1547 1550 1552 1554 1556 1558 1559 1561 1562 1564
1441 1428 1416 1414 1414 1414 1418 1418 1420 1429 1438 1436 1433 1443 1448 1442 1448 1459 1461 1458 1458 1456 1451 1447 1444 1434 1423 1413 1404 1406 1410 1409 1411 1412 1415 1421 1423 1428 1433 1436 1439 1441 1443 1447 1451 1453 1455 1458 1461 1462 1466 1470 1474 1478 1481 1484 1488 1490 1494 1497 1500 1503 1506 1510 1512 1515 1518 1521 1525 1527 1530 1533 1535 1538 1540 1543 1545 1547 1550 1552 1554 1556 1558 1559 1561 1563
1455 1433 1418 1420 1415 1408 1412 1414 1414 1424 1432 1433 1435 1439 1434 1429 1437 1452 1457 1450 1451 1458 1450 1437 1433 1426 1421 1414 1404 1405 1410 1409 1410 1410 1411 1415 1419 1425 1431 1433 1436 1438 1440 1443 1445 1448 1451 1454 1456 1459 1462 1466 1470 1473 1476 1479 1483 1486 1490 1493 1497 1500 1504 1507 1509 1512 1516 1519 1522 1524 1527 1530 1533 1535 1537 1540 1542 1545 1548 1550 1552 1554 1556 1558 1560 1561
1468 1453 1430 1425 1422 1409 1407 1412 1411 1413 1419 1429 1436 1430 1426 1433 1437 1444 1457 1457 1458 1462 1448 1433 1432 1429 1427 1422 1407 1405 1412 1412 1411 1409 1409 1410 1413 1419 1423 1427 1431 1433 1436 1439 1440 1444 1447 1450 1453 1456 1459 1462 1465 1468 1471 1475 1479 1483 1487 1490 1494 1497 1500 1503 1506 1510 1513 1516 1519 1522 1524 1527 1530 1532 1535 1537 1540 1543 1545 1547 1549 1552 1554 1556 1558 1559
1468 1464 1437 1419 1420 1414 1407 1412 1417 1413 1411 1417 1422 1418 1426 1442 1444 1443 1454 1458 1461 1464 1450 1436 1433 1428 1426 1420 1408 1406 1409 1410 1410 1408 1408 1409 1409 1413 1416 1419 1424 1427 1432 1436 1439 1443 1446 1448 1451 1453 1455 1458 1461 1465 1468 1472 1477 1480 1484 1487 1491 1494 1497 1501 1504 1507 1510 1513 1516 1519 1522 1525 1527 1530 1533 1535 1538 1540 1542 1544 1547 1549 1551 1553 1556 1557
1464 1468 1448 1420 1418 1420 1411 1413 1420 1417 1411 1411 1415 1416 1419 1429 1434 1437 1442 1443 1450 1458 1452 1443 1436 1426 1418 1410 1404 1404 1402 1403 1408 1408 1408 1407 1405 1408 1412 1414 1418 1422 1427 1432 1436 1439 1441 1444 1447 1449 1451 1454 1458 1463 1467 1471 1475 1478 1482 1485 1489 1492 1496 1499 1502 1505 1508 1511 1514 1517 1519 1522 1525 1528 1530 1533 1535 1537 1539 1542 1544 1546 1549 1551 1553 1555
1464 1469 1461 1434 1423 1424 1416 1411 1412 1413 1414 1415 1417 1420 1419 1419 1423 1429 1432 1430 1435 1446 1449 1448 1441 1422 1408 1401 1398 1397 1395 1397 1402 1404 1404 1402 1401 1404 1406 1409 1413 1417 1421 1425 1429 1433 1435 1438 1443 1446 1450 1454 1458 1462 1466 1469 1472 1475 1479 1482 1485 1490 1493 1496 1499 1502 1505 1508 1511 1514 1517 1520 1522 1525 1528 1530 1533 1535 1537 1539 1542 1544 1547 1549 1551 1553
1466 1468 1468 1453 1442 1435 1420 1407 1406 1410 1414 1415 1416 1416 1416 1418 1422 1433 1440 1429 1424 1433 1436 1441 1439 1417 1398 1394 1393 1391 1391 1391 1393 1397 1398 1397 1397 1400 1402 1405 1409 1412 1416 1420 1423 1426 1430 1434 1439 1444 1449 1453 1457 1460 1462 1466 1469 1472 1476 1479 1483 1487 1490 1493 1496 1500 1503 1506 1509 1511 1514 1517 1520 1522 1525 1527 1530 1532 1534 1537 1539 1542 1544 1546 1548 1550
1466 1466 1467 1459 1449 1438 1420 1407 1409 1413 1414 1413 1413 1409 1409 1413 1416 1428 1438 1429 1422 1426 1425 1430 1434 1410 1388 1386 1386 1385 1386 1385 1387 1391 1392 1393 1393 1395 1398 1401 1404 1407 1410 1414 1418 1422 1426 1430 1435 1441 1446 1450 1453 1456 1459 1462 1466 1469 1472 1476 1480 1483 1487 1490 1494 1497 1500 1503 1506 1509 1512 1514 1517 1520 1522 1524 1527 1529 1531 1534 1537 1539 1541 1544 1546 1548
1466 1466 1467 1460 1444 1426 1413 1407 1406 1407 1410 1412 1410 1405 1405 1408 1407 1410 1418 1418 1422 1425 1423 1432 1436 1407 1382 1381 1382 1381 1382 1381 1384 1387 1387 1389 1390 1391 1394 1397 1401 1404 1407 1410 1414 1419 1423 1428 1433 1439 1443 1446 1450 1453 1456 1459 1462 1466 1469 1473 1477 1480 1484 1488 1491 1495 1498 1500 1503 1506 1509 1512 1514 1517 1519 1521 1524 1526 1529 1532 1534 1537 1539 1541 1543 1545
1470 1470 1471 1469 1453 1428 1414 1411 1409 1411 1417 1422 1420 1412 1404 1400 1402 1406 1409 1412 1419 1420 1418 1432 1434 1403 1381 1380 1380 1380 1382 1381 1383 1385 1384 1384 1385 1387 1390 1393 1397 1400 1404 1408 1412 1417 1422 1427 1431 1435 1437 1441 1445 1449 1452 1456 1459 1463 1466 1470 1473 1477 1481 1485 1489 1492 1495 1498 1501 1504 1506 1509 1511 1514 1516 1518 1521 1523 1526 1529 1531 1534 1536 1538 1540 1542
1472 1471 1471 1476 1470 1449 1433 1431 1435 1440 1440 1433 1425 1419 1410 1403 1402 1405 1410 1416 1420 1416 1414 1420 1418 1398 1383 1382 1380 1379 1382 1381 1380 1381 1381 1379 1380 1382 1385 1390 1394 1397 1401 1405 1409 1414 1418 1423 1427 1430 1432 1436 1441 1445 1448 1452 1456 1460 1464 1467 1471 1474 1478 1482 1486 1489 1492 1495 1498 1500 1503 1506 1508 1511 1513 1515 1518 1520 1523 1526 1528 1530 1533 1535 1537 1539
1471 1470 1468 1472 1473 1464 1455 1451 1450 1453 1451 1441 1431 1424 1418 1413 1405 1400 1407 1413 1413 1414 1414 1408 1404 1399 1391 1384 1380 1378 1380 1379 1377 1377 1376 1374 1375 1377 1380 1385 1390 1393 1398 1402 1406 1410 1414 1418 1422 1425 1429 1433 1437 1442 1445 1449 1453 1457 1461 1464 1468 1472 1476 1479 1483 1486 1489 1492 1495 1497 1499 1502 1505 1507 1510 1512 1515 1518 1520 1522 1525 1527 1529 1532 1534 1536
1472 1472 1468 1467 1466 1463 1460 1454 1448 1449 1450 1444 1438 1429 1419 1414 1409 1402 1400 1400 1402 1411 1415 1404 1400 1402 1393 1382 1379 1377 1377 1376 1374 1373 1372 1368 1370 1374 1377 1382 1386 1390 1395 1399 1404 1408 1411 1415 1418 1422 1426 1430 1434 1439 1443 1447 1451 1455 1459 1462 1466 1469 1472 1476 1479 1482 1486 1488 1491 1493 1495 1498 1501 1504 1507 1509 1512 1515 1517 1519 1521 1524 1526 1528 1530 1532
1473 1472 1466 1463 1463 1458 1455 1450 1446 1446 1444 1437 1433 1428 1417 1410 1409 1402 1395 1392 1394 1402 1405 1400 1399 1400 1388 1377 1374 1373 1374 1374 1370 1369 1368 1365 1367 1371 1375 1380 1384 1387 1392 1397 1401 1405 1407 1411 1415 1419 1423 1427 1431 1436 1441 1445 1449 1453 1456 1460 1463 1466 1469 1472 1476 1479 1482 1484 1487 1489 1492 1496 1499 1501 1504 1507 1509 1511 1513 1515 1518 1520 1522 1524 1526 1528
1471 1470 1463 1462 1462 1455 1448 1445 1442 1440 1437 1430 1424 1419 1413 1407 1403 1399 1394 1390 1389 1391 1393 1393 1395 1392 1380 1373 1371 1370 1371 1371 1367 1367 1369 1367 1367 1370 1374 1378 1381 1385 1389 1393 1397 1401 1404 1408 1411 1415 1419 1424 1428 1433 1437 1442 1445 1449 1452 1456 1459 1463 1465 1469 1472 1475 1478 1480 1483 1486 1490 1493 1496 1498 1501 1503 1505 1508 1510 1512 1515 1517 1518 1520 1522 1525
1472 1469 1463 1463 1463 1453 1442 1438 1436 1435 1434 1429 1420 1413 1409 1403 1394 1391 1392 1390 1388 1390 1391 1393 1395 1389 1376 1370 1371 1370 1369 1369 1368 1367 1368 1366 1366 1369 1373 1377 1380 1383 1387 1390 1394 1398 1402 1406 1410 1413 1417 1421 1425 1430 1434 1437 1441 1445 1449 1453 1456 1459 1462 1466 1469 1472 1474 1477 1480 1484 1487 1490 1493 1495 1497 1500 1502 1504 1507 1509 1511 1513 1515 1517 1519 1521
1472 1469 1464 1466 1468 1456 1441 1437 1435 1433 1429 1424 1418 1414 1411 1402 1389 1388 1394 1395 1392 1390 1390 1393 1396 1388 1377 1373 1372 1370 1370 1371 1370 1368 1368 1366 1366 1368 1371 1375 1378 1381 1385 1388 1392 1396 1400 1405 1408 1412 1415 1418 1423 1427 1431 1434 1438 1442 1446 1449 1453 1457 1460 1463 1466 1469 1472 1475 1478 1481 1484 1486 1489 1492 1494 1496 1499 1501 1503 1506 1508 1509 1511 1513 1515 1517
1470 1469 1467 1470 1471 1457 1443 1441 1439 1433 1426 1420 1418 1419 1415 1406 1395 1392 1399 1403 1399 1394 1392 1391 1389 1384 1379 1376 1374 1373 1374 1375 1372 1370 1369 1368 1367 1367 1369 1372 1375 1378 1382 1386 1390 1394 1398 1402 1406 1409 1412 1416 1420 1424 1428 1432 1435 1438 1441 1445 1450 1454 1458 1461 1463 1467 1469 1472 1475 1478 1480 1483 1486 1488 1491 1493 1496 1498 1500 1502 1503 1505 1507 1509 1511 1514
1469 1469 1468 1470 1470 1459 1446 1442 1436 1431 1427 1419 1414 1416 1415 1410 1404 1403 1408 1410 1405 1399 1395 1390 1386 1384 1381 1380 1378 1376 1377 1378 1375 1371 1369 1368 1369 1369 1370 1372 1375 1377 1380 1384 1388 1392 1396 1399 1403 1407 1410 1414 1418 1422 1426 1430 1433 1436 1440 1445 1449 1452 1455 1458 1461 1464 1466 1469 1472 1474 1477 1480 1482 1484 1487 1490 1492 1495 1496 1498 1499 1501 1504 1506 1508 1509
1469 1469 1468 1468 1467 1460 1451 1443 1433 1427 1423 1414 1410 1413 1413 1410 1408 1408 1408 1407 1403 1399 1396 1392 1389 1385 1381 1381 1382 1379 1377 1376 1374 1372 1371 1371 1370 1371 1372 1374 1376 1379 1381 1385 1388 1392 1395 1399 1402 1406 1409 1414 1418 1422 1426 1430 1433 1437 1441 1444 1448 1451 1453 1456 1458 1461 1463 1466 1469 1471 1474 1476 1479 1481 1484 1486 1489 1491 1492 1494 1496 1498 1500 1502 1504 1505
1467 1468 1467 1466 1464 1460 1456 1450 1436 1423 1416 1411 1411 1412 1411 1409 1410 1411 1408 1405 1403 1401 1399 1396 1392 1387 1383 1382 1382 1382 1379 1372 1369 1373 1375 1375 1374 1374 1375 1376 1377 1379 1382 1385 1389 1392 1396 1399 1402 1406 1410 1414 1418 1422 1425 1429 1433 1437 1440 1443 1446 1449 1452 1454 1456 1458 1461 1463 1466 1469 1471 1473 1476 1478 1480 1483 1485 1486 1488 1490 1492 1494 1496 1498 1499 1501
1464 1466 1467 1466 1462 1458 1458 1455 1440 1424 1419 1421 1420 1419 1420 1419 1418 1420 1420 1412 1405 1403 1401 1399 1395 1390 1386 1382 1381 1383 1379 1371 1373 1380 1382 1380 1379 1378 1378 1378 1379 1380 1383 1386 1390 1393 1397 1400 1404 1408 1412 1415 1419 1422 1425 1429 1433 1436 1440 1443 1445 1448 1450 1452 1454 1456 1458 1461 1463 1466 1468 1471 1473 1475 1477 1479 1481 1482 1485 1487 1488 1491 1492 1494 1495 1496
1461 1464 1465 1465 1461 1457 1459 1458 1445 1429 1426 1431 1428 1422 1422 1422 1419 1419 1422 1416 1407 1403 1402 1400 1397 1394 1389 1385 1383 1383 1379 1380 1389 1392 1389 1387 1386 1383 1382 1382 1382 1382 1384 1387 1390 1393 1397 1401 1405 1409 1413 1416 1419 1422 1425 1429 1433 1436 1439 1441 1443 1446 1448 1449 1451 1453 1456 1458 1461 1463 1465 1468 1469 1471 1473 1475 1477 1479 1481 1483 1485 1487 1488 1490 1491 1492
1459 1461 1463 1465 1463 1459 1460 1461 1451 1437 1432 1433 1427 1417 1414 1416 1416 1415 1420 1420 1412 1407 1404 1402 1400 1397 1391 1387 1386 1383 1381 1391 1402 1399 1393 1392 1390 1387 1386 1386 1385 1386 1387 1388 1391 1394 1397 1401 1404 1408 1412 1415 1418 1421 1424 1427 1431 1433 1436 1439 1441 1444 1445 1446 1449 1451 1453 1456 1458 1461 1462 1464 1466 1468 1470 1472 1474 1476 1478 1480 1482 1483 1485 1486 1487 1489
1460 1461 1461 1463 1462 1458 1457 1457 1450 1442 1438 1433 1425 1417 1411 1410 1409 1413 1423 1426 1418 1411 1409 1406 1402 1399 1395 1392 1392 1387 1387 1396 1403 1400 1397 1396 1393 1391 1390 1389 1390 1390 1390 1391 1393 1394 1397 1401 1404 1407 1411 1414 1417 1419 1422 1425 1428 1431 1434 1437 1439 1441 1442 1444 1447 1449 1451 1453 1455 1457 1459 1461 1463 1465 1467 1469 1471 1473 1475 1477 1478 1480 1481 1482 1484 1486
1462 1461 1458 1459 1457 1454 1455 1454 1447 1442 1440 1434 1426 1419 1409 1403 1408 1420 1430 1430 1422 1416 1413 1409 1405 1403 1401 1399 1398 1395 1394 1398 1400 1399 1398 1396 1394 1393 1393 1393 1394 1394 1394 1395 1397 1397 1399 1402 1404 1407 1411 1414 1416 1419 1422 1425 1428 1431 1433 1436 1438 1439 1441 1444 1446 1448 1449 1451 1453 1455 1457 1458 1460 1462 1464 1466 1468 1470 1472 1473 1475 1477 1478 1479 1481 1482
1462 1459 1454 1453 1453 1451 1450 1449 1446 1442 1439 1434 1427 1419 1409 1409 1422 1432 1432 1429 1425 1420 1416 1411 1408 1407 1406 1405 1404 1401 1400 1400 1400 1399 1398 1397 1396 1396 1396 1396 1397 1397 1398 1399 1400 1400 1401 1402 1405 1408 1411 1414 1417 1419 1422 1424 1427 1430 1432 1435 1437 1438 1440 1442 1444 1446 1447 1449 1451 1452 1454 1456 1458 1459 1461 1463 1465 1467 1468 1470 1472 1473 1475 1476 1478 1479
1457 1457 1454 1450 1448 1447 1445 1446 1448 1447 1441 1435 1429 1423 1420 1426 1436 1437 1431 1429 1427 1421 1416 1413 1412 1410 1410 1409 1408 1405 1403 1402 1402 1402 1401 1400 1400 1400 1399 1399 1399 1399 1400 1401 1402 1402 1402 1403 1405 1408 1411 1414 1417 1419 1422 1424 1426 1429 1431 1433 1435 1437 1439 1440 1442 1443 1445 1446 1448 1450 1451 1453 1455 1457 1459 1460 1462 1463 1465 1467 1468 1470 1471 1473 1474 1476
1455 1457 1459 1454 1449 1449 1450 1451 1451 1449 1443 1438 1435 1434 1435 1438 1438 1435 1433 1431 1426 1422 1419 1416 1414 1414 1413 1411 1411 1409 1406 1404 1405 1405 1404 1404 1404 1403 1402 1402 1402 1402 1403 1403 1403 1404 1403 1403 1405 1408 1411 1414 1417 1419 1421 1423 1425 1428 1430 1432 1434 1435 1437 1438 1440 1441 1442 1444 1445 1447 1448 1450 1452 1454 1456 1457 1459 1461 1461 1463 1465 1466 1468 1470 1471 1472
1457 1457 1459 1457 1452 1450 1451 1450 1448 1446 1443 1441 1440 1439 1440 1439 1437 1435 1436 1434 1428 1424 1422 1419 1417 1416 1415 1413 1413 1411 1409 1408 1409 1408 1407 1407 1407 1405 1405 1405 1404 1404 1405 1405 1405 1405 1405 1405 1406 1408 1411 1413 1416 1418 1420 1422 1425 1427 1428 1430 1432 1433 1435 1436 1438 1439 1440 1441 1443 1444 1446 1447 1449 1451 1452 1454 1456 1457 1459 1460 1462 1463 1465 1466 1468 1469
1457 1455 1456 1456 1454 1450 1448 1446 1446 1445 1444 1443 1442 1442 1442 1441 1438 1437 1438 1437 1432 1427 1424 1422 1420 1418 1417 1416 1416 1414 1413 1412 1411 1411 1411 1410 1409 1408 1408 1407 1407 1407 1406 1406 1407 1407 1407 1407 1408 1409 1410 1413 1415 1417 1419 1421 1423 1425 1427 1429 1430 1431 1432 1434 1435 1436 1438 1439 1440 1442 1443 1445 1446 1448 1449 1451 1453 1454 1456 1458 1459 1460 1461 1463 1464 1466
1457 1455 1456 1457 1458 1454 1449 1446 1445 1445 1444 1443 1442 1443 1444 1443 1440 1438 1439 1439 1436 1430 1427 1426 1424 1422 1421 1420 1420 1419 1417 1415 1413 1413 1413 1412 1411 1411 1410 1410 1410 1410 1409 1409 1409 1410 1410 1410 1410 1410 1412 1413 1415 1417 1419 1421 1422 1424 1425 1427 1428 1430 1431 1432 1433 1434 1435 1436 1438 1439 1441 1442 1443 1445 1447 1448 1450 1452 1453 1455 1456 1457 1458 1459 1461 1463
1459 1456 1457 1459 1459 1454 1448 1446 1444 1443 1442 1442 1442 1442 1443 1443 1440 1438 1438 1439 1438 1435 1432 1429 1427 1426 1425 1424 1424 1423 1422 1419 1417 1416 1414 1414 1413 1413 1412 1412 1412 1412 1412 1411 1411 1411 1412 1412 1412 1413 1413 1414 1416 1417 1419 1420 1421 1422 1424 1425 1426 1428 1429 1430 1431 1432 1433 1435 1436 1437 1438 1440 1441 1443 1444 1445 1447 1448 1450 1451 1453 1454 1455 1457 1459 1461
1461 1460 1459 1460 1458 1452 1448 1446 1443 1440 1439 1439 1440 1441 1442 1442 1440 1438 1437 1439 1439 1437 1434 1432 1430 1429 1429 1429 1429 1428 1426 1424 1421 1420 1418 1417 1415 1415 1414 1414 1414 1414 1414 1413 1413 1412 1413 1413 1413 1414 1414 1415 1416 1416 1417 1419 1420 1421 1422 1423 1424 1426 1427 1428 1429 1430 1431 1433 1434 1436 1437 1438 1439 1440 1442 1443 1444 1445 1447 1449 1450 1452 1453 1455 1457 1459
1463 1463 1462 1462 1460 1453 1448 1447 1448 1446 1442 1438 1438 1441 1442 1442 1441 1440 1439 1439 1439 1438 1436 1433 1431 1431 1431 1432 1432 1431 1430 1428 1426 1424 1423 1421 1419 1418 1417 1416 1416 1415 1415 1414 1414 1414 1413 1414 1414 1415 1415 1415 1416 1416 1417 1418 1419 1420 1421 1422 1423 1423 1424 1425 1426 1428 1430 1431 1433 1435 1436 1436 1437 1439 1440 1441 1442 1444 1445 1447 1448 1450 1452 1453 1455 1457
1466 1466 1464 1464 1460 1453 1447 1448 1450 1450 1442 1435 1435 1440 1442 1442 1443 1443 1442 1441 1440 1439 1437 1435 1432 1431 1432 1433 1434 1433 1433 1431 1429 1427 1426 1424 1423 1422 1420 1419 1418 1417 1416 1416 1416 1416 1415 1416 1417 1417 1417 1417 1417 1417 1417 1418 1419 1420 1420 1421 1421 1422 1423 1424 1425 1426 1428 1430 1432 1433 1434 1435 1436 1437 1439 1440 1441 1442 1444 1445 1447 1449 1450 1452 1454 1455